This demonstration page uses our WeatherBlox Daily Observations layout. Learn more.

Left ArrowRight Arrow

39.29038, -76.61219

Hourly Observations for March 2, 2018

Temp ( °F °C ) Dew Point ( °F °C ) Humidity (%) Winds ( mph kmh ) Pressure ( in mb ) Visibility ( mi km ) Precip ( " mm )
12:54 am 00:54 undefined 48 8.9 47 8.3 96 96 undefined N/A 29.44 997 N/A 0.03 0.76
1:54 am 01:54 undefined 48 8.9 35 1.7 61 61 undefined N/A 29.45 997 N/A 0.00 0.00
2:54 am 02:54 undefined 46 7.8 31 -0.6 56 56 undefined N/A 29.44 997 N/A 0.00 0.00
3:54 am 03:54 undefined 45 7.2 27 -2.8 49 49 undefined N/A 29.44 997 N/A 0.00 0.00
4:54 am 04:54 undefined 44 6.7 26 -3.3 49 49 undefined N/A 29.43 997 N/A 0.00 0.00
5:54 am 05:54 undefined 42 5.6 28 -2.2 58 58 undefined N/A 29.45 997 N/A 0.00 0.00
6:54 am 06:54 undefined 39 3.9 31 -0.6 73 73 undefined N/A 29.47 998 N/A 0.00 0.00
7:54 am 07:54 undefined 38 3.3 31 -0.6 76 76 undefined N/A 29.52 1000 N/A 0.00 0.00
8:54 am 08:54 undefined 38 3.3 31 -0.6 76 76 undefined N/A 29.57 1001 N/A 0.01 0.25
9:54 am 09:54 undefined 41 5 29 -1.7 62 62 undefined N/A 29.64 1004 N/A 0.00 0.00
10:54 am 10:54 undefined 42 5.6 27 -2.8 55 55 undefined N/A 29.65 1004 N/A 0.00 0.00
11:54 am 11:54 undefined 45 7.2 27 -2.8 49 49 undefined N/A 29.66 1004 N/A 0.00 0.00
1:54 pm 13:54 undefined 45 7.2 26 -3.3 48 48 undefined N/A 29.67 1005 N/A 0.00 0.00
2:54 pm 14:54 undefined 46 7.8 25 -3.9 44 44 undefined N/A 29.71 1006 N/A 0.00 0.00
3:54 pm 15:54 undefined 45 7.2 25 -3.9 46 46 undefined N/A 29.70 1006 N/A 0.00 0.00
4:54 pm 16:54 undefined 44 6.7 24 -4.4 45 45 undefined N/A 29.76 1008 N/A 0.00 0.00
5:54 pm 17:54 undefined 44 6.7 22 -5.6 41 41 undefined N/A 29.80 1009 N/A 0.00 0.00
6:54 pm 18:54 undefined 43 6.1 22 -5.6 43 43 undefined N/A 29.85 1011 N/A 0.00 0.00
7:54 pm 19:54 undefined 43 6.1 22 -5.6 43 43 undefined N/A 29.88 1012 N/A 0.00 0.00
8:54 pm 20:54 undefined 43 6.1 23 -5 45 45 undefined N/A 29.91 1013 N/A 0.00 0.00
9:54 pm 21:54 undefined 43 6.1 22 -5.6 43 43 undefined N/A 29.93 1014 N/A 0.00 0.00
10:54 pm 22:54 undefined 42 5.6 22 -5.6 45 45 undefined N/A 29.95 1014 N/A 0.00 0.00
11:54 pm 23:54 undefined 42 5.6 22 -5.6 45 45 undefined N/A 29.96 1015 N/A 0.00 0.00

Powered by AerisWeather